Regional Weather Roundup
Issued by NWS Goodland, KS

Home | Current Version | Previous Version | Text Only | Print | Product List | Glossary On
Versions: 1 2 3 4 5 6 7 8 9 10 11 12 13 14 15 16 17 18 19 20 21 22 23 24 25 26 27 28 29 30 31 32 33 34 35 36 37 38 39 40 41 42 43 44 45 46 47 48 49 50
679
ASUS43 KGLD 181659
RWRGLD

GOODLAND FORECAST AREA HOURLY WEATHER ROUNDUP
NATIONAL WEATHER SERVICE GOODLAND KS
1000 AM MST WED JAN 18 2017

...OFFICIAL OBSERVATIONS...

CITY           SKY/WX    TMP DP  RH WIND       PRES   REMARKS
GOODLAND KS    CLOUDY    36  28  73 NW6       29.93S
HILL CITY KS   CLOUDY    39  34  82 SW9       29.99R
IMPERIAL NEB   CLOUDY    32  24  72 W3        29.91F
MCCOOK NEB     MOSUNNY   33  29  85 SW7       29.95R
AKRON CO       CLOUDY    32  20  61 W14       29.91S
BURLINGTON CO  CLOUDY    33  27  78 W8        29.92F
LIMON CO       CLOUDY    39  27  62 N3        29.93S
$$

...UNOFFICIAL OBSERVATIONS...

CITY           SKY/WX    TMP DP  RH WIND       PRES   REMARKS
LENORA KS        N/A     37  32  82 S6          N/A
SHARON SPRINGS   N/A     34  30  86 SW7         N/A
TRENTON NEB      N/A     33  32  96 CALM        N/A
KIT CARSON CO    N/A     25  22  89 CALM        N/A
YUMA CO        FAIR      30  23  74 W10       29.91F
$$




USA.gov is the U.S. government's official web portal to all federal, state and local government web resources and services.